Kaltag, AK

12:55 PM AKDT on March 25, 2017 (GMT -0800)
Kaltag

Weather History for PAKV - February, 2013

Change the Weather History Date:

Thursday, February 14, 2013

  Actual Average (PAGA) Record (PAGA)
Temperature  
Mean Temperature 10 °F -  
Max Temperature 19 °F 1 °F 39 °F (2006)
Min Temperature -2 °F -16 °F -50 °F (1976)
Degree Days  
Heating Degree Days 55    
Moisture  
Dew Point 5 °F    
Average Humidity 81    
Maximum Humidity 93    
Minimum Humidity 72    
Precipitation  
Precipitation 0.14 in - - ()
Sea Level Pressure  
Sea Level Pressure 29.51 in    
Wind  
Wind Speed 7 mph (SW)    
Max Wind Speed 16 mph    
Max Gust Speed 22 mph    
Visibility 2 miles    
Events Snow    
Averages and records for this station are not official NWS values.
T = Trace of Precipitation, MM = Missing Value Source: NWS Daily Summary

Daily Weather History Graph

Daily Weather History Graph

Search for Another Location

Airport or City:

Trip Planner

Search our weather history database for the weather conditions in past years. The results will help you decide how hot, cold, wet, or windy it might be!

Date:

Astronomy

Feb. 14, 2013 Rise Set
Actual Time 9:32 AM AKST 6:06 PM AKST
Civil Twilight 8:40 AM AKST 6:58 PM AKST
Nautical Twilight 7:44 AM AKST 7:55 PM AKST
Astronomical Twilight 6:49 AM AKST 8:50 PM AKST
Moon 9:39 AM AKST (2/14) 12:13 AM AKST (2/14)
Length of Visible Light 10h 17m
Length of Day
8h 33m
Waxing Crescent, 23% of the Moon is Illuminated
Feb 14
Waxing Crescent
Feb 17
First Quarter
Feb 25
Full
Mar 4
Last Quarter
Mar 11
New

Hourly Weather History & Observations

Time (AKST) Temp. Windchill Dew Point Humidity Pressure Visibility Wind Dir Wind Speed Gust Speed Precip Events Conditions
12:25 AM 17.6 °F - 14.0 °F 86% 29.63 in 2.0 mi Calm Calm - 0.01 in Snow Light Snow
12:37 AM 15.8 °F 10.2 °F 12.2 °F 86% 29.63 in 1.8 mi SW 3.5 mph - 0.01 in Snow Light Snow
12:53 AM 16.0 °F - 12.9 °F 88% 29.65 in 2.0 mi Calm Calm - 0.02 in Snow Light Snow
1:28 AM 17.6 °F 10.7 °F 15.8 °F 93% 29.61 in 1.5 mi North 4.6 mph - 0.01 in Snow Light Snow
1:48 AM 19.4 °F 10.4 °F 15.8 °F 86% 29.61 in 2.0 mi NE 6.9 mph - 0.01 in Snow Light Snow
1:53 AM 19.0 °F 10.0 °F 15.1 °F 85% 29.62 in 2.0 mi NE 6.9 mph - 0.01 in Snow Light Snow
2:07 AM 19.4 °F 11.5 °F 15.8 °F 86% 29.60 in 2.5 mi NE 5.8 mph - 0.01 in Snow Light Snow
2:16 AM 19.4 °F 12.8 °F 15.8 °F 86% 29.60 in 3.0 mi NE 4.6 mph - 0.01 in Snow Light Snow
2:21 AM 19.4 °F - 15.8 °F 86% 29.59 in 2.5 mi Calm Calm - 0.01 in Snow Light Snow
2:30 AM 15.8 °F - 12.2 °F 86% 29.59 in 2.0 mi Calm Calm - 0.01 in Snow Light Snow
3:00 AM 15.8 °F 10.2 °F 10.4 °F 79% 29.59 in 1.8 mi SW 3.5 mph - 0.01 in Snow Light Snow
3:53 AM 17.1 °F - 12.9 °F 84% 29.59 in 1.0 mi Calm Calm - 0.03 in Snow Light Snow
4:01 AM 15.8 °F - 12.2 °F 86% 29.57 in 1.0 mi Calm Calm - 0.01 in Snow Light Snow
4:53 AM 19.0 °F 10.0 °F 15.1 °F 85% 29.57 in 1.2 mi NE 6.9 mph - 0.03 in Snow Light Snow
5:43 AM 19.4 °F 10.4 °F 15.8 °F 86% 29.53 in 2.0 mi NE 6.9 mph - 0.01 in Snow Light Snow
5:51 AM 19.4 °F 10.4 °F 15.8 °F 86% 29.53 in 3.0 mi NE 6.9 mph - 0.01 in Snow Light Snow
5:53 AM 19.0 °F 10.0 °F 15.1 °F 85% 29.55 in 3.0 mi NE 6.9 mph - 0.01 in Snow Light Snow
6:53 AM 12.9 °F 6.9 °F 9.0 °F 84% 29.53 in 2.5 mi WSW 3.5 mph - 0.00 in Snow Light Snow
6:55 AM 12.2 °F 6.1 °F 8.6 °F 85% 29.52 in 3.0 mi WSW 3.5 mph - 0.00 in Snow Light Snow
7:53 AM 12.0 °F 5.9 °F 8.1 °F 84% 29.52 in 7.0 mi SW 3.5 mph - 0.01 in Snow Light Snow
8:06 AM 12.2 °F 6.1 °F 8.6 °F 85% 29.50 in 3.0 mi SW 3.5 mph - 0.00 in Snow Light Snow
8:13 AM 12.2 °F 2.9 °F 6.8 °F 79% 29.50 in 2.0 mi WSW 5.8 mph - 0.00 in Snow Light Snow
8:53 AM 10.9 °F 0.2 °F 7.0 °F 84% 29.50 in 2.0 mi SW 6.9 mph - 0.00 in Snow Light Snow
9:06 AM 10.4 °F 4.0 °F 6.8 °F 85% 29.48 in 1.8 mi SW 3.5 mph - 0.00 in Snow Light Snow
9:13 AM 10.4 °F 0.8 °F 6.8 °F 85% 29.48 in 2.5 mi WSW 5.8 mph - 0.00 in Snow Light Snow
9:22 AM 10.4 °F 0.8 °F 6.8 °F 85% 29.48 in 3.0 mi SW 5.8 mph - 0.00 in Snow Light Snow
9:30 AM 10.4 °F 2.2 °F 6.8 °F 85% 29.48 in 2.5 mi WSW 4.6 mph - 0.00 in Snow Light Snow
9:53 AM 10.9 °F 0.2 °F 7.0 °F 84% 29.49 in 2.0 mi SW 6.9 mph - 0.00 in Snow Light Snow
10:05 AM 10.4 °F 2.2 °F 6.8 °F 85% 29.47 in 1.2 mi SW 4.6 mph - 0.00 in Snow Light Snow
10:22 AM 10.4 °F 0.8 °F 6.8 °F 85% 29.47 in 0.8 mi SW 5.8 mph - 0.00 in Snow Light Snow
10:41 AM 10.4 °F 0.8 °F 6.8 °F 85% 29.47 in 1.0 mi SW 5.8 mph - 0.01 in Snow Light Snow
10:53 AM 10.9 °F 1.4 °F 6.1 °F 81% 29.49 in 1.2 mi SW 5.8 mph - 0.01 in Snow Light Snow
11:53 AM 10.9 °F 0.2 °F 6.1 °F 81% 29.47 in 1.2 mi SW 6.9 mph - 0.00 in Snow Light Snow
12:11 PM 10.4 °F -1.5 °F 6.8 °F 85% 29.45 in 2.5 mi SW 8.1 mph - 0.00 in Snow Light Snow
12:34 PM 10.4 °F -1.5 °F 5.0 °F 79% 29.45 in 3.0 mi WSW 8.1 mph - 0.00 in Snow Light Snow
12:48 PM 10.4 °F -3.3 °F 5.0 °F 79% 29.45 in 1.8 mi SW 10.4 mph - 0.00 in Snow Light Snow
12:53 PM 10.0 °F -0.9 °F 5.0 °F 80% 29.47 in 1.2 mi SW 6.9 mph - 0.00 in Snow Light Snow
1:06 PM 8.6 °F -7.0 °F 3.2 °F 79% 29.44 in 3.0 mi SW 12.7 mph - 0.01 in Snow Light Snow
1:17 PM 8.6 °F -6.3 °F 3.2 °F 79% 29.44 in 1.8 mi SW 11.5 mph - 0.01 in Snow Light Snow
1:32 PM 8.6 °F -5.5 °F 3.2 °F 79% 29.44 in 0.8 mi SW 10.4 mph - 0.01 in Snow Light Snow
1:39 PM 8.6 °F -6.3 °F 3.2 °F 79% 29.44 in 0.8 mi SW 11.5 mph - 0.01 in Snow Light Snow
1:51 PM 8.6 °F -7.0 °F 3.2 °F 79% 29.43 in 1.2 mi WSW 12.7 mph - 0.01 in Snow Light Snow
1:53 PM 9.0 °F -6.6 °F 3.9 °F 80% 29.45 in 1.5 mi SW 12.7 mph - 0.01 in Snow Light Snow
1:59 PM 8.6 °F -8.3 °F 3.2 °F 79% 29.43 in 3.0 mi SW 15.0 mph - 0.00 in Snow Light Snow
2:18 PM 8.6 °F -7.0 °F 3.2 °F 79% 29.43 in 1.8 mi SW 12.7 mph - 0.00 in Snow Light Snow
2:28 PM 8.6 °F -7.7 °F 3.2 °F 79% 29.43 in 1.2 mi SW 13.8 mph - 0.00 in Snow Light Snow
2:41 PM 8.6 °F -7.0 °F 3.2 °F 79% 29.43 in 1.2 mi SW 12.7 mph - 0.00 in Snow Light Snow
2:53 PM 9.0 °F -5.9 °F 3.9 °F 80% 29.45 in 1.8 mi SW 11.5 mph - 0.00 in Snow Light Snow
3:53 PM 8.1 °F -7.7 °F 3.0 °F 80% 29.45 in 2.5 mi SW 12.7 mph - 0.00 in Snow Light Snow
4:10 PM 8.6 °F -7.0 °F 3.2 °F 79% 29.44 in 1.2 mi SW 12.7 mph - 0.00 in Snow Light Snow
4:22 PM 8.6 °F -6.3 °F 1.4 °F 73% 29.44 in 1.2 mi SW 11.5 mph - 0.00 in Snow Light Snow
4:39 PM 8.6 °F -7.0 °F 3.2 °F 79% 29.44 in 0.8 mi SW 12.7 mph - 0.00 in Snow Light Snow
4:53 PM 7.0 °F -9.1 °F 1.9 °F 80% 29.46 in 1.0 mi SW 12.7 mph - 0.00 in Snow Light Snow
5:13 PM 6.8 °F -10.0 °F 1.4 °F 79% 29.45 in 0.8 mi SW 13.8 mph - 0.00 in Snow Light Snow
5:35 PM 6.8 °F -10.0 °F 1.4 °F 79% 29.45 in 1.0 mi SW 13.8 mph - 0.00 in Snow Light Snow
5:53 PM 7.0 °F -8.3 °F 1.9 °F 80% 29.47 in 1.0 mi SW 11.5 mph - 0.00 in Snow Light Snow
6:08 PM 6.8 °F -10.0 °F 1.4 °F 79% 29.46 in 0.8 mi SW 13.8 mph - 0.00 in Snow Light Snow
6:26 PM 6.8 °F -8.6 °F 1.4 °F 79% 29.47 in 1.2 mi SW 11.5 mph - 0.00 in Snow Light Snow
6:44 PM 6.8 °F -10.7 °F 1.4 °F 79% 29.47 in 2.5 mi WSW 15.0 mph - 0.00 in Snow Light Snow
6:53 PM 6.1 °F -11.6 °F 1.0 °F 80% 29.49 in 1.5 mi SW 15.0 mph - 0.00 in Snow Light Snow
7:37 PM 6.8 °F -10.0 °F -0.4 °F 72% 29.49 in 1.0 mi SW 13.8 mph - 0.00 in Snow Light Snow
7:53 PM 6.1 °F -10.9 °F 1.0 °F 80% 29.51 in 1.0 mi WSW 13.8 mph - 0.00 in Snow Light Snow
8:51 PM 6.8 °F -10.7 °F -0.4 °F 72% 29.51 in 1.0 mi WSW 15.0 mph - 0.01 in Snow Light Snow
8:53 PM 6.1 °F -10.9 °F -0.0 °F 76% 29.53 in 1.2 mi SW 13.8 mph - 0.01 in Snow Light Snow
9:06 PM 6.8 °F -10.7 °F -0.4 °F 72% 29.51 in 2.5 mi SW 15.0 mph 21.9 mph 0.00 in Snow Light Snow
9:17 PM 5.0 °F -13.6 °F -0.4 °F 78% 29.52 in 3.0 mi SW 16.1 mph 21.9 mph 0.00 in Snow Light Snow
9:37 PM 5.0 °F -12.3 °F -0.4 °F 78% 29.53 in 2.5 mi SW 13.8 mph 21.9 mph 0.00 in Snow Light Snow
9:39 PM 5.0 °F -13.0 °F -0.4 °F 78% 29.53 in 3.0 mi SW 15.0 mph 21.9 mph 0.00 in Snow Light Snow
9:48 PM 5.0 °F -11.6 °F -0.4 °F 78% 29.54 in 2.0 mi SW 12.7 mph - 0.00 in Snow Light Snow
9:53 PM 5.0 °F -13.0 °F -0.9 °F 76% 29.56 in 2.0 mi SW 15.0 mph 20.7 mph 0.00 in Snow Light Snow
10:29 PM 3.2 °F -15.3 °F -2.2 °F 78% 29.56 in 1.8 mi SW 15.0 mph 21.9 mph 0.00 in Snow Light Snow
10:42 PM 3.2 °F -15.3 °F -2.2 °F 78% 29.57 in 2.0 mi SW 15.0 mph - 0.00 in Snow Light Snow
10:53 PM 3.0 °F -14.8 °F -4.0 °F 73% 29.60 in 3.0 mi SW 13.8 mph - 0.00 in Snow Light Snow
11:06 PM 1.4 °F -16.9 °F -5.8 °F 72% 29.59 in 5.0 mi SW 13.8 mph - 0.00 in Snow Light Snow
11:53 PM -2.9 °F -20.8 °F -9.9 °F 72% 29.64 in 10.0 mi SW 11.5 mph - 0.00 in   Clear